Location: Saint-Hippolyte
(43.6394°N, 4.7559°E)
Time: 16:08:14
(UTC+00:00)

Nadezhda 2 Rocket - Pass Details

Date: 24 October 2020
Orbit: 948 x 1010 km, 83.0° (Epoch: 24 November)

Event Time Altitude Azimuth Distance (km) Brightness Sun altitude
Rises 17:53:58 0° 352° (N) 3,729 7.6 -13.5°
Reaches altitude 10° 17:56:30 10° 354° (N) 2,782 6.9 -14.0°
Maximum altitude 18:02:56 80° 82° (E) 1,027 4.5 -15.1°
Drops below altitude 10° 18:09:21 10° 170° (S) 2,782 6.8 -16.3°
Sets 18:11:53 0° 171° (S) 3,727 7.5 -16.7°
